Probability
0 0 0 0 0 0 0 0 0 0 0 0 0 0 0 0 0 0 0 0 0 0 0 0 0 0 1 2 3 5 7 9 10 10 9 7 4 2 1 1 1 1 1 1
0 0 0 0 0 0 0 0 0 0 0 0 0 0 0 0 0 0 0 0 0 0 0 0 0 0 1 2 3 4 6 8 9 9 9 8 5 3 1 1 0 0 0 0
0 0 0 0 0 0 0 0 0 0 0 0 0 0 0 0 0 0 0 0 0 0 0 0 0 0 1 2 3 3 4 7 9 9 8 9 7 4 2 1 0 0 0 0
0 0 0 0 0 0 0 0 0 0 0 0 0 0 0 0 0 0 0 0 0 0 0 0 0 0 0 1 2 3 3 5 7 7 7 8 8 5 2 1 0 0 0 0
0 0 0 0 0 0 0 0 0 0 0 0 0 0 0 0 0 0 0 0 0 0 0 0 0 0 0 0 1 2 3 3 5 6 7 8 8 6 2 1 0 0 0 0
0 0 0 0 0 0 0 0 0 0 0 0 0 0 0 0 0 0 0 0 0 0 0 0 0 0 0 0 0 1 1 2 3 5 6 7 8 7 3 1 0 0 0 0
0 0 0 0 0 0 0 0 0 0 0 0 0 0 0 0 0 0 0 0 0 0 0 0 0 0 0 0 0 0 0 1 1 3 5 6 7 6 3 1 0 0 0 0
0 0 0 0 0 0 0 0 0 0 0 0 0 0 0 0 0 0 0 0 0 0 0 0 0 0 0 0 0 0 0 0 0 1 2 4 6 6 4 1 0 0 0 0
0 0 0 0 0 0 0 0 0 0 0 0 0 0 0 0 0 0 0 0 0 0 0 0 0 0 0 0 0 0 0 0 0 0 0 2 4 5 5 3 1 0 0 0
0 0 0 0 0 0 0 0 0 0 0 0 0 0 0 0 0 0 0 0 0 0 0 0 0 0 0 0 0 0 0 0 0 0 0 0 2 3 5 4 1 0 0 0
0 0 0 0 0 0 0 0 0 0 0 0 0 0 0 0 0 0 0 0 0 0 0 0 0 0 0 0 0 0 0 0 0 0 0 0 0 1 3 3 1 0 0 0
0 0 0 0 0 0 0 0 0 0 0 0 0 0 0 0 0 0 0 0 0 0 0 0 0 0 0 0 0 0 0 0 0 0 0 1 0 0 1 2 2 1 0 0
0 0 0 0 0 0 0 0 0 0 0 0 0 0 0 0 0 0 0 0 0 0 0 0 0 0 0 0 0 0 0 0 0 0 0 0 0 0 0 1 2 2 1 0
0 0 0 0 0 0 0 0 0 0 0 0 0 0 0 0 0 0 0 0 0 0 0 0 0 0 0 0 0 0 0 0 0 0 0 0 0 0 0 0 1 2 2 1
0 0 0 0 0 0 0 0 0 0 0 0 0 0 0 0 0 0 0 0 0 0 0 0 0 0 0 0 0 0 0 0 0 0 0 0 0 0 0 0 0 1 2 2
0 0 0 0 0 0 0 0 0 0 0 0 0 0 0 0 0 0 0 0 0 0 0 0 0 0 0 0 0 0 0 0 0 0 0 0 0 0 0 0 0 0 1 1
0 0 0 0 0 0 0 0 0 0 0 0 0 0 0 0 0 0 0 0 0 0 0 0 0 0 0 0 0 0 0 0 0 0 0 0 0 0 0 0 0 0 0 0
0 0 0 0 0 0 0 0 0 0 0 0 0 0 0 0 0 0 0 0 0 0 0 0 0 0 0 0 0 0 0 0 0 0 0 0 0 0 0 0 0 0 0 0
0 0 0 0 0 0 0 0 0 0 0 0 0 0 0 0 0 0 0 0 0 0 0 0 0 0 0 0 0 0 0 0 0 0 0 0 0 0 0 0 0 0 0 0
0 0 0 0 0 0 0 0 0 0 0 0 0 0 0 0 0 0 0 0 0 0 0 0 0 0 0 0 0 0 0 0 0 0 0 0 0 0 0 0 0 0 0 0
0 0 0 0 0 0 0 0 0 0 0 0 0 0 0 0 0 0 0 0 0 0 0 0 0 0 0 0 0 0 0 0 0 0 0 0 0 0 0 0 0 0 0 0
0 0 0 0 0 0 0 0 0 0 0 0 0 0 0 0 0 0 0 0 0 0 0 0 0 0 0 0 0 0 0 0 0 0 0 0 0 0 0 0 0 0 0 0
0 0 0 0 0 0 0 0 0 0 0 0 0 0 0 0 0 0 0 0 0 0 0 0 0 0 0 0 0 0 0 0 0 0 0 0 0 0 0 0 0 0 0 0
0 0 0 0 0 0 0 0 0 0 0 0 0 0 0 0 0 0 0 0 0 0 0 0 0 0 0 0 0 0 0 0 0 0 0 0 0 0 0 0 0 0 0 0
0 0 0 0 0 0 0 0 0 0 0 0 0 0 0 0 0 0 0 0 0 0 0 0 0 0 0 0 0 0 0 0 0 0 0 0 0 0 0 0 0 0 0 0
0 0 0 0 0 0 0 0 0 0 0 0 0 0 0 0 0 0 0 0 0 0 0 0 0 0 0 0 0 0 0 0 0 0 0 0 0 0 0 0 0 0 0 0
Wind_Speed
4 4 7 8 9 8 6 7 9 7 3 4 8 10 8 6 5 5 4 3 2 2 1 1 1 2 2 1 1 1 1 0 0 0 1 1 1 1 0 0 1 1 1 1
4 8 8 5 6 8 8 9 9 6 2 4 7 10 8 7 7 5 4 3 2 1 1 1 2 2 1 1 1 1 0 0 0 0 1 1 1 1 1 1 1 1 1 1
8 3 4 6 7 8 9 8 7 6 5 5 6 8 8 5 5 4 3 2 1 0 0 1 1 2 2 1 1 1 1 0 1 0 1 1 0 1 1 1 0 0 0 1
7 5 4 6 7 7 8 4 5 5 4 4 3 6 6 5 5 5 3 1 1 0 0 1 2 2 1 1 1 2 1 1 0 1 1 1 1 1 1 1 0 0 1 1
5 3 5 7 6 5 4 3 4 5 5 5 6 6 7 4 5 3 2 1 1 1 2 1 2 2 1 2 2 2 2 2 2 1 1 1 1 1 1 1 1 1 1 1
5 3 3 5 4 4 1 2 3 3 2 7 8 7 7 3 4 3 3 3 2 1 2 2 2 2 2 2 2 2 2 3 2 1 0 0 0 0 0 1 1 1 1 1
5 6 4 3 3 3 3 1 1 2 5 7 5 6 6 1 1 2 2 3 2 2 2 2 3 3 3 2 2 2 2 3 3 2 1 0 0 1 1 1 1 1 1 1
4 5 6 5 4 4 6 5 4 4 5 3 3 7 3 2 3 3 2 2 3 2 2 2 2 2 2 2 2 2 2 2 3 2 2 1 1 0 1 1 1 1 1 1
4 4 2 3 3 3 5 6 3 2 3 4 6 4 2 2 2 1 1 2 2 2 2 2 2 2 2 2 2 2 2 2 2 2 2 2 1 1 1 1 1 1 1 1
2 4 3 2 2 4 3 2 2 3 4 6 7 7 5 6 4 2 1 1 2 2 2 2 2 2 2 2 3 3 3 2 2 2 2 2 2 1 1 1 1 1 1 1
2 3 3 3 7 7 5 4 4 4 4 4 5 4 0 3 4 3 2 1 2 2 2 2 3 3 3 3 3 3 3 3 3 3 3 3 3 2 2 1 1 1 1 1
3 3 4 5 2 2 4 6 6 5 6 5 5 5 1 3 4 3 2 2 2 2 2 3 3 3 4 4 4 4 3 4 3 3 3 2 3 3 3 2 2 2 2 1
3 3 2 2 2 2 3 5 5 3 2 4 6 6 1 3 3 2 2 2 2 2 2 2 2 3 3 3 3 3 4 4 4 3 3 3 3 3 3 3 3 2 2 2
2 4 6 8 4 3 5 7 7 5 5 7 10 9 5 3 1 0 0 1 2 2 2 1 2 2 2 3 3 3 3 4 4 4 3 3 3 3 3 3 3 2 2 2
2 4 5 7 6 4 7 9 10 11 11 10 10 10 7 4 3 2 1 1 1 1 1 2 2 2 2 2 3 3 3 3 4 4 3 3 3 3 3 3 3 3 2 2
2 3 2 5 5 5 8 11 12 13 13 13 13 12 5 3 2 1 1 1 0 1 1 2 2 2 2 2 3 3 3 3 3 3 4 4 4 4 4 4 4 4 3 3
3 3 2 4 2 3 9 10 12 9 8 7 11 9 2 2 2 1 0 0 1 1 2 2 2 2 2 2 2 2 3 3 3 3 3 4 4 4 4 4 4 4 3 3
4 3 2 1 0 8 7 0 3 6 6 6 5 3 2 1 1 1 0 0 0 1 1 2 2 2 2 2 2 2 2 3 3 3 4 4 4 4 4 4 4 4 4 3
4 4 3 3 4 8 4 1 2 4 5 4 4 3 2 2 2 1 2 2 2 2 2 2 2 2 2 2 3 3 2 2 3 3 4 5 4 4 5 5 5 4 4 3
1 3 3 4 5 8 4 1 1 1 5 2 2 2 1 1 1 2 2 3 3 3 3 3 3 3 3 3 3 2 2 3 3 4 5 5 5 4 5 5 5 4 4 3
3 4 6 5 6 8 2 1 3 4 6 1 2 2 2 2 2 0 2 3 3 3 3 3 3 3 3 3 2 2 2 3 4 4 5 5 5 4 4 4 4 4 3 3
8 6 6 5 6 9 3 5 6 4 0 1 1 2 2 1 1 1 2 2 3 3 3 3 3 3 3 3 3 2 3 4 4 4 4 5 5 4 4 4 4 4 3 3
7 7 5 7 7 2 5 4 2 1 0 1 1 1 2 2 1 1 1 1 1 2 2 2 2 2 3 3 3 2 4 4 4 4 4 5 5 4 4 3 3 3 3 2
4 2 3 4 5 3 4 2 1 1 1 1 1 2 2 2 2 1 1 0 1 1 1 2 1 2 3 3 3 3 4 4 4 4 4 4 4 4 4 3 3 2 3 2
4 4 4 5 4 3 4 3 2 1 1 0 0 1 2 3 2 2 1 0 0 1 1 1 1 1 3 3 4 4 4 3 4 4 4 4 3 3 3 3 3 3 3 3
5 6 6 7 5 4 4 2 2 2 2 2 2 1 1 2 2 1 1 1 1 1 1 1 1 2 3 4 4 4 3 3 3 3 3 3 3 3 3 3 4 5 5 6
Wind_Direction
193 213 216 219 225 255 279 278 272 275 266 259 251 256 254 243 242 246 245 243 230 227 186 120 109 92 85 62 47 76 101 12 20 85 145 174 182 163 115 73 82 134 136 147
205 229 235 245 247 256 265 268 272 280 282 283 270 269 264 246 234 237 242 235 241 246 125 101 105 90 79 74 39 46 156 191 224 345 205 197 202 180 177 176 149 117 129 146
226 239 229 238 245 247 253 255 264 282 314 272 279 276 245 239 218 214 220 222 222 214 217 168 127 93 66 44 16 353 355 288 167 143 147 113 140 154 163 187 181 56 151 158
245 250 241 240 245 246 255 264 269 270 279 267 242 280 251 219 224 207 197 188 184 305 30 71 77 66 51 27 14 1 6 9 74 147 146 161 172 200 215 208 204 179 148 155
237 228 240 241 240 236 257 307 280 262 254 270 244 255 265 209 224 199 172 159 114 69 47 56 83 82 48 40 31 15 8 9 17 64 136 171 197 223 163 127 142 181 172 154
249 252 243 250 251 234 250 305 286 265 241 252 225 225 261 218 218 196 175 149 122 82 51 29 46 71 55 50 38 29 14 7 7 21 63 132 182 143 97 124 175 198 181 169
245 230 224 233 235 203 189 168 243 228 218 242 206 218 245 185 121 144 155 134 108 83 67 39 26 37 44 40 35 30 19 7 3 3 348 317 238 188 185 195 207 205 201 201
225 243 199 206 212 207 204 200 202 226 241 273 242 234 230 124 98 95 98 104 96 79 67 50 25 26 37 25 22 28 22 6 1 356 353 331 320 256 225 239 223 218 217 207
227 242 193 212 233 216 199 214 239 265 281 271 246 235 228 185 176 130 89 84 105 84 59 50 32 31 41 27 11 11 15 9 3 356 352 348 343 349 331 323 296 247 258 217
243 257 247 202 215 242 239 206 181 196 223 251 249 237 225 193 199 170 140 103 93 81 56 38 35 35 38 27 12 13 14 5 359 0 354 352 352 347 332 319 318 293 280 263
250 224 233 205 203 201 188 199 207 218 231 237 260 250 55 162 166 156 137 90 89 75 57 43 33 33 37 29 23 17 14 8 8 3 354 4 2 351 334 333 328 314 281 248
205 219 236 228 232 257 229 217 199 207 233 234 258 264 33 95 113 118 120 93 68 70 65 54 40 34 33 22 16 15 14 8 360 352 357 7 6 1 352 337 328 320 303 274
175 192 228 256 238 224 240 237 236 240 241 232 237 253 124 103 101 97 99 96 76 72 66 51 39 38 29 17 10 9 10 1 351 350 0 8 1 358 351 340 326 322 320 312
189 211 216 228 241 197 231 232 224 212 226 239 239 252 252 246 226 200 207 126 105 71 53 43 33 30 20 12 7 7 3 358 351 349 355 358 352 350 345 336 327 323 327 314
191 227 239 264 286 263 248 238 227 227 232 238 251 256 257 246 237 231 200 121 91 59 18 14 15 9 9 1 357 358 356 354 349 345 347 347 346 347 345 336 331 330 327 319
207 230 244 271 268 265 264 248 236 238 242 247 259 267 267 258 265 291 67 86 8 326 351 353 353 350 349 349 348 348 345 346 346 347 345 346 346 344 341 333 331 331 333 321
190 187 221 257 294 329 262 233 223 223 224 225 242 253 261 267 265 246 236 195 277 319 356 340 336 340 346 344 343 335 337 345 348 348 344 345 343 338 335 332 331 329 324 324
190 187 207 235 209 240 239 157 203 217 237 230 241 267 260 245 288 299 85 138 25 26 6 355 355 351 353 1 2 348 352 353 348 345 341 341 338 332 332 329 326 323 320 319
206 188 200 196 234 266 274 231 190 211 256 228 232 271 334 26 344 304 33 53 64 41 31 24 12 3 8 16 5 357 357 355 348 341 337 335 331 326 324 321 319 319 319 319
222 201 197 206 226 242 244 139 70 120 265 235 189 227 296 79 247 254 33 39 42 45 46 37 26 25 25 11 4 3 354 351 339 331 327 324 321 317 314 312 313 318 315 309
177 204 212 219 236 255 239 165 131 183 245 242 187 196 208 202 228 184 57 45 41 42 43 40 36 29 14 2 5 2 353 337 326 326 324 322 319 315 311 311 314 318 317 319
183 189 199 198 223 246 164 143 181 215 305 160 187 192 211 219 100 85 80 60 45 40 40 37 33 16 7 3 3 352 335 328 332 330 326 323 321 319 319 323 325 328 330 333
205 198 193 202 217 220 163 181 179 107 197 256 225 206 194 210 196 126 93 75 54 47 41 33 34 9 2 2 2 339 329 336 336 332 326 323 324 325 328 329 331 336 342 335
221 213 213 238 246 229 196 184 164 177 226 259 229 204 188 195 181 155 145 82 48 51 46 34 32 4 346 353 354 340 333 339 333 325 322 324 326 330 334 336 335 338 334 329
200 180 205 240 260 277 234 217 209 223 193 164 206 179 179 169 176 179 187 170 71 35 34 35 12 338 331 338 342 339 340 340 330 321 320 324 325 328 331 338 334 331 322 328
190 190 198 225 216 220 240 204 194 204 215 206 194 191 173 164 169 153 142 89 70 45 26 9 348 332 325 329 328 333 337 333 324 318 323 322 321 327 333 336 334 336 332 334